| time (UTC) | temp F | wind direction | speed MPH | gust MPH | rain 1hr in | rain 24hr in | rain mn in | humidity % | barometer mb |
| 20260905154532 | 88 | 25 | 1.0 | 4.0 | 0.00 | 0.06 | 0.00 | 68 | 1015.8 |
| 20260905154003 | 88 | 272 | 1.0 | 4.0 | 0.00 | 0.06 | 0.00 | 69 | 1015.9 |
| 20260905153503 | 88 | 134 | 0.0 | 3.0 | 0.00 | 0.06 | 0.00 | 70 | 1015.9 |
| 20260905153022 | 87 | 151 | 0.0 | 3.0 | 0.00 | 0.06 | 0.00 | 70 | 1015.9 |
| 20260905152515 | 87 | 296 | 1.0 | 3.0 | 0.00 | 0.06 | 0.00 | 72 | 1015.9 |
| 20260905152002 | 87 | 312 | 0.0 | 1.0 | 0.00 | 0.06 | 0.00 | 73 | 1015.9 |
| 20260905151525 | 86 | 301 | 0.0 | 2.0 | 0.00 | 0.06 | 0.00 | 72 | 1016.0 |
| 20260905151014 | 86 | 15 | 0.0 | 2.0 | 0.00 | 0.06 | 0.00 | 72 | 1015.9 |
| 20260905150504 | 86 | 3 | 0.0 | 2.0 | 0.00 | 0.06 | 0.00 | 73 | 1015.9 |
| 20260905150018 | 85 | 290 | 0.0 | 0.0 | 0.00 | 0.06 | 0.00 | 75 | 1015.8 |
| 20260905145507 | 85 | 284 | 0.0 | 0.0 | 0.00 | 0.06 | 0.00 | 77 | 1015.8 |
| 20260905145010 | 84 | 284 | 0.0 | 1.0 | 0.00 | 0.06 | 0.00 | 77 | 1015.8 |
| 20260905144512 | 84 | 311 | 0.0 | 1.0 | 0.00 | 0.06 | 0.00 | 78 | 1015.9 |
| 20260905144425 | 84 | 240 | 0.0 | 0.0 | 0.00 | 0.06 | 0.00 | 79 | 1015.9 |
| 20260905142503 | 82 | 293 | 0.0 | 0.0 | 0.00 | 0.06 | 0.00 | 79 | 1015.9 |
| 20260905142009 | 82 | 293 | 0.0 | 0.0 | 0.00 | 0.06 | 0.00 | 81 | 1015.9 |
| 20260905141529 | 82 | 293 | 0.0 | 0.0 | 0.00 | 0.06 | 0.00 | 82 | 1016.0 |
| 20260905141004 | 81 | 300 | 0.0 | 0.0 | 0.00 | 0.06 | 0.00 | 83 | 1016.0 |
| 20260905140506 | 81 | 285 | 0.0 | 0.0 | 0.00 | 0.06 | 0.00 | 84 | 1016.0 |
| 20260905140026 | 81 | 283 | 0.0 | 0.0 | 0.00 | 0.06 | 0.00 | 85 | 1016.1 |
| 20260905135512 | 80 | 281 | 0.0 | 0.0 | 0.00 | 0.06 | 0.00 | 86 | 1016.1 |
| 20260905135003 | 80 | 281 | 0.0 | 0.0 | 0.00 | 0.06 | 0.00 | 85 | 1016.1 |
| 20260905134515 | 80 | 281 | 0.0 | 0.0 | 0.00 | 0.06 | 0.00 | 86 | 1016.2 |
| 20260905134011 | 80 | 260 | 0.0 | 0.0 | 0.00 | 0.06 | 0.00 | 87 | 1016.3 |
| 20260905133503 | 80 | 260 | 0.0 | 0.0 | 0.00 | 0.06 | 0.00 | 87 | 1016.3 |
| 20260905133016 | 80 | 260 | 0.0 | 0.0 | 0.00 | 0.06 | 0.00 | 87 | 1016.4 |
| 20260905132510 | 79 | 260 | 0.0 | 0.0 | 0.00 | 0.06 | 0.00 | 87 | 1016.3 |
| 20260905132015 | 79 | 260 | 0.0 | 0.0 | 0.00 | 0.06 | 0.00 | 89 | 1016.3 |
| 20260905131513 | 78 | 260 | 0.0 | 0.0 | 0.00 | 0.06 | 0.00 | 90 | 1016.3 |
| 20260905131006 | 78 | 260 | 0.0 | 0.0 | 0.00 | 0.06 | 0.00 | 91 | 1016.4 |
| 20260905130512 | 77 | 260 | 0.0 | 0.0 | 0.00 | 0.06 | 0.00 | 93 | 1016.4 |
| 20260905130004 | 76 | 260 | 0.0 | 0.0 | 0.00 | 0.06 | 0.00 | 93 | 1016.4 |
| 20260905125506 | 76 | 260 | 0.0 | 0.0 | 0.00 | 0.06 | 0.00 | 94 | 1016.4 |
| 20260905125008 | 76 | 260 | 0.0 | 0.0 | 0.00 | 0.06 | 0.00 | 95 | 1016.4 |
| 20260905124528 | 75 | 260 | 0.0 | 0.0 | 0.00 | 0.06 | 0.00 | 96 | 1016.5 |
| 20260905124004 | 75 | 260 | 0.0 | 0.0 | 0.00 | 0.06 | 0.00 | 96 | 1016.6 |
| 20260905123506 | 74 | 260 | 0.0 | 0.0 | 0.00 | 0.06 | 0.00 | 97 | 1016.5 |
| 20260905123026 | 74 | 260 | 0.0 | 0.0 | 0.00 | 0.06 | 0.00 | 97 | 1016.5 |
| 20260905122512 | 74 | 260 | 0.0 | 0.0 | 0.00 | 0.06 | 0.00 | 97 | 1016.4 |
| 20260905122006 | 74 | 260 | 0.0 | 0.0 | 0.00 | 0.06 | 0.00 | 97 | 1016.4 |
| 20260905121524 | 73 | 260 | 0.0 | 0.0 | 0.00 | 0.06 | 0.00 | 97 | 1016.3 |
| 20260905121017 | 73 | 260 | 0.0 | 0.0 | 0.00 | 0.06 | 0.00 | 97 | 1016.2 |
| 20260905120503 | 73 | 260 | 0.0 | 0.0 | 0.00 | 0.06 | 0.00 | 97 | 1016.2 |
| 20260905120017 | 73 | 260 | 0.0 | 0.0 | 0.00 | 0.06 | 0.00 | 97 | 1016.2 |
| 20260905115511 | 73 | 260 | 0.0 | 0.0 | 0.00 | 0.06 | 0.00 | 97 | 1016.1 |
| 20260905115015 | 73 | 260 | 0.0 | 0.0 | 0.00 | 0.06 | 0.00 | 97 | 1016.0 |
| 20260905114514 | 73 | 260 | 0.0 | 0.0 | 0.00 | 0.06 | 0.00 | 97 | 1015.7 |
| 20260905114010 | 73 | 260 | 0.0 | 0.0 | 0.00 | 0.06 | 0.00 | 97 | 1015.6 |
| 20260905113514 | 73 | 260 | 0.0 | 0.0 | 0.00 | 0.06 | 0.00 | 97 | 1015.5 |
| 20260905113006 | 73 | 260 | 0.0 | 0.0 | 0.00 | 0.06 | 0.00 | 97 | 1015.4 |
| 20260905112509 | 73 | 260 | 0.0 | 0.0 | 0.00 | 0.06 | 0.00 | 97 | 1015.4 |
| 20260905112011 | 73 | 260 | 0.0 | 0.0 | 0.00 | 0.06 | 0.00 | 97 | 1015.2 |
| 20260905111535 | 73 | 260 | 0.0 | 0.0 | 0.00 | 0.06 | 0.00 | 97 | 1015.2 |
| 20260905111007 | 73 | 260 | 0.0 | 0.0 | 0.00 | 0.06 | 0.00 | 97 | 1015.2 |
| 20260905110507 | 73 | 260 | 0.0 | 0.0 | 0.00 | 0.06 | 0.00 | 96 | 1015.0 |
| 20260905105516 | 73 | 260 | 0.0 | 0.0 | 0.00 | 0.06 | 0.00 | 96 | 1015.3 |
| 20260905105006 | 73 | 260 | 0.0 | 0.0 | 0.00 | 0.06 | 0.00 | 96 | 1015.3 |
| 20260905104523 | 73 | 260 | 0.0 | 0.0 | 0.00 | 0.06 | 0.00 | 96 | 1015.3 |
| 20260905104016 | 73 | 260 | 0.0 | 0.0 | 0.00 | 0.06 | 0.00 | 96 | 1015.3 |
| 20260905103019 | 73 | 260 | 0.0 | 0.0 | 0.00 | 0.06 | 0.00 | 96 | 1014.9 |
| 20260905102514 | 73 | 260 | 0.0 | 0.0 | 0.00 | 0.06 | 0.00 | 96 | 1014.8 |
| 20260905102016 | 73 | 260 | 0.0 | 0.0 | 0.00 | 0.06 | 0.00 | 96 | 1014.7 |
| 20260905101517 | 73 | 260 | 0.0 | 0.0 | 0.00 | 0.06 | 0.00 | 96 | 1014.7 |
| 20260905101011 | 73 | 260 | 0.0 | 0.0 | 0.00 | 0.06 | 0.00 | 96 | 1014.7 |
| 20260905100513 | 73 | 260 | 0.0 | 0.0 | 0.00 | 0.06 | 0.00 | 96 | 1014.7 |
| 20260905100010 | 73 | 260 | 0.0 | 0.0 | 0.00 | 0.06 | 0.00 | 96 | 1014.7 |
| 20260905095510 | 73 | 260 | 0.0 | 0.0 | 0.00 | 0.06 | 0.00 | 96 | 1014.7 |
| 20260905095016 | 73 | 260 | 0.0 | 0.0 | 0.00 | 0.06 | 0.00 | 96 | 1014.8 |
| 20260905094534 | 73 | 260 | 0.0 | 0.0 | 0.00 | 0.06 | 0.00 | 96 | 1014.9 |
| 20260905094005 | 73 | 260 | 0.0 | 0.0 | 0.00 | 0.06 | 0.00 | 96 | 1014.9 |
| 20260905093512 | 73 | 260 | 0.0 | 0.0 | 0.00 | 0.06 | 0.00 | 96 | 1014.8 |
| 20260905093031 | 73 | 260 | 0.0 | 0.0 | 0.00 | 0.06 | 0.00 | 96 | 1014.9 |
| 20260905092506 | 73 | 260 | 0.0 | 0.0 | 0.00 | 0.06 | 0.00 | 96 | 1014.7 |
| 20260905092012 | 73 | 260 | 0.0 | 0.0 | 0.00 | 0.06 | 0.00 | 96 | 1014.6 |
| 20260905091531 | 73 | 260 | 0.0 | 0.0 | 0.00 | 0.06 | 0.00 | 96 | 1014.5 |
| 20260905091005 | 74 | 260 | 0.0 | 0.0 | 0.00 | 0.06 | 0.00 | 96 | 1014.4 |
| 20260905090505 | 74 | 260 | 0.0 | 0.0 | 0.00 | 0.06 | 0.00 | 95 | 1014.4 |
| 20260905090027 | 74 | 260 | 0.0 | 0.0 | 0.00 | 0.06 | 0.00 | 96 | 1014.5 |
| 20260905085503 | 74 | 260 | 0.0 | 0.0 | 0.00 | 0.06 | 0.00 | 95 | 1014.6 |
| 20260905085005 | 73 | 260 | 0.0 | 0.0 | 0.00 | 0.06 | 0.00 | 95 | 1014.7 |
| 20260905084522 | 74 | 261 | 0.0 | 0.0 | 0.00 | 0.06 | 0.00 | 95 | 1014.8 |
| 20260905084014 | 74 | 260 | 0.0 | 0.0 | 0.00 | 0.06 | 0.00 | 95 | 1014.5 |
| 20260905083505 | 74 | 260 | 0.0 | 0.0 | 0.00 | 0.06 | 0.00 | 95 | 1014.5 |
| 20260905083014 | 74 | 260 | 0.0 | 0.0 | 0.00 | 0.06 | 0.00 | 95 | 1014.5 |
| 20260905082513 | 74 | 260 | 0.0 | 0.0 | 0.00 | 0.06 | 0.00 | 95 | 1014.5 |
| 20260905082004 | 74 | 260 | 0.0 | 0.0 | 0.00 | 0.06 | 0.00 | 95 | 1014.6 |
| 20260905081511 | 74 | 260 | 0.0 | 0.0 | 0.00 | 0.06 | 0.00 | 95 | 1014.7 |
| 20260905081007 | 74 | 260 | 0.0 | 0.0 | 0.00 | 0.06 | 0.00 | 95 | 1014.8 |
| 20260905080004 | 74 | 260 | 0.0 | 0.0 | 0.00 | 0.06 | 0.00 | 94 | 1014.2 |
| 20260905075009 | 74 | 260 | 0.0 | 0.0 | 0.00 | 0.06 | 0.00 | 94 | 1014.2 |
| 20260905074528 | 74 | 260 | 0.0 | 0.0 | 0.00 | 0.06 | 0.00 | 94 | 1014.2 |
| 20260905074006 | 74 | 260 | 0.0 | 0.0 | 0.00 | 0.06 | 0.00 | 94 | 1014.3 |
| 20260905073506 | 74 | 260 | 0.0 | 0.0 | 0.00 | 0.06 | 0.00 | 94 | 1014.4 |
| 20260905073030 | 74 | 260 | 0.0 | 0.0 | 0.00 | 0.06 | 0.00 | 94 | 1014.4 |
| 20260905072504 | 74 | 260 | 0.0 | 0.0 | 0.00 | 0.06 | 0.00 | 94 | 1014.3 |
| 20260905072008 | 75 | 260 | 0.0 | 0.0 | 0.00 | 0.06 | 0.00 | 94 | 1014.3 |
| 20260905071525 | 74 | 260 | 0.0 | 0.0 | 0.00 | 0.06 | 0.00 | 93 | 1014.3 |
| 20260905071016 | 75 | 260 | 0.0 | 0.0 | 0.00 | 0.06 | 0.00 | 94 | 1014.5 |
| 20260905070504 | 75 | 260 | 0.0 | 0.0 | 0.00 | 0.06 | 0.00 | 94 | 1014.7 |
| 20260905070019 | 75 | 260 | 0.0 | 0.0 | 0.00 | 0.06 | 0.00 | 94 | 1014.9 |
| 20260905065510 | 75 | 260 | 0.0 | 0.0 | 0.00 | 0.06 | 0.00 | 94 | 1014.6 |
| 20260905065004 | 75 | 260 | 0.0 | 0.0 | 0.00 | 0.06 | 0.00 | 93 | 1014.6 |
| 20260905064514 | 75 | 260 | 0.0 | 0.0 | 0.00 | 0.06 | 0.00 | 93 | 1014.7 |
| 20260905064015 | 75 | 260 | 0.0 | 0.0 | 0.00 | 0.06 | 0.00 | 93 | 1014.9 |
| 20260905063514 | 75 | 260 | 0.0 | 0.0 | 0.00 | 0.06 | 0.00 | 93 | 1015.0 |
| 20260905063010 | 75 | 260 | 0.0 | 0.0 | 0.00 | 0.06 | 0.00 | 93 | 1014.9 |
| 20260905062508 | 75 | 260 | 0.0 | 0.0 | 0.00 | 0.06 | 0.00 | 93 | 1014.7 |
| 20260905062009 | 75 | 260 | 0.0 | 0.0 | 0.00 | 0.06 | 0.00 | 93 | 1014.7 |
| 20260905061538 | 75 | 260 | 0.0 | 0.0 | 0.00 | 0.06 | 0.00 | 93 | 1014.9 |
| 20260905061008 | 75 | 260 | 0.0 | 0.0 | 0.00 | 0.06 | 0.00 | 92 | 1015.1 |
| 20260905060509 | 75 | 260 | 0.0 | 0.0 | 0.00 | 0.06 | 0.00 | 93 | 1015.1 |
| 20260905060030 | 75 | 260 | 0.0 | 0.0 | 0.00 | 0.06 | 0.00 | 92 | 1014.9 |
| 20260905055508 | 75 | 260 | 0.0 | 0.0 | 0.00 | 0.06 | 0.00 | 92 | 1015.0 |
| 20260905055008 | 75 | 260 | 0.0 | 0.0 | 0.00 | 0.06 | 0.00 | 92 | 1015.1 |
| 20260905054532 | 75 | 260 | 0.0 | 0.0 | 0.00 | 0.06 | 0.00 | 92 | 1015.2 |
| 20260905054013 | 75 | 260 | 0.0 | 0.0 | 0.00 | 0.06 | 0.00 | 92 | 1015.2 |
| 20260905053508 | 76 | 260 | 0.0 | 0.0 | 0.00 | 0.06 | 0.00 | 92 | 1015.0 |
| 20260905053021 | 76 | 260 | 0.0 | 0.0 | 0.00 | 0.06 | 0.00 | 92 | 1014.9 |
| 20260905052511 | 76 | 260 | 0.0 | 0.0 | 0.00 | 0.06 | 0.00 | 92 | 1015.0 |
| 20260905052004 | 76 | 260 | 0.0 | 0.0 | 0.00 | 0.06 | 0.00 | 92 | 1015.1 |
| 20260905051519 | 76 | 260 | 0.0 | 0.0 | 0.00 | 0.06 | 0.00 | 92 | 1015.2 |
| 20260905051009 | 76 | 260 | 0.0 | 0.0 | 0.00 | 0.06 | 0.00 | 92 | 1014.9 |
| 20260905050513 | 76 | 260 | 0.0 | 0.0 | 0.00 | 0.06 | 0.00 | 92 | 1015.0 |
| 20260905050015 | 76 | 260 | 0.0 | 0.0 | 0.00 | 0.06 | 0.00 | 92 | 1015.2 |
| 20260905045509 | 76 | 260 | 0.0 | 0.0 | 0.00 | 0.06 | 0.06 | 92 | 1015.3 |
| 20260905045014 | 76 | 260 | 0.0 | 0.0 | 0.00 | 0.06 | 0.06 | 92 | 1015.0 |
| 20260905044509 | 76 | 260 | 0.0 | 0.0 | 0.00 | 0.06 | 0.06 | 92 | 1015.0 |
| 20260905044008 | 76 | 260 | 0.0 | 0.0 | 0.00 | 0.06 | 0.06 | 92 | 1015.0 |
| 20260905043509 | 76 | 260 | 0.0 | 0.0 | 0.00 | 0.06 | 0.06 | 91 | 1015.2 |
| 20260905043033 | 76 | 260 | 0.0 | 0.0 | 0.00 | 0.06 | 0.06 | 91 | 1015.3 |
| 20260905042505 | 76 | 260 | 0.0 | 0.0 | 0.00 | 0.06 | 0.06 | 91 | 1015.2 |
| 20260905042008 | 76 | 260 | 0.0 | 0.0 | 0.00 | 0.06 | 0.06 | 91 | 1015.2 |
| 20260905041544 | 76 | 260 | 0.0 | 0.0 | 0.00 | 0.06 | 0.06 | 90 | 1015.1 |
| 20260905041015 | 77 | 260 | 0.0 | 0.0 | 0.00 | 0.06 | 0.06 | 90 | 1015.0 |
| 20260905040508 | 77 | 260 | 0.0 | 0.0 | 0.00 | 0.06 | 0.06 | 90 | 1015.3 |
| 20260905040028 | 77 | 260 | 0.0 | 0.0 | 0.00 | 0.06 | 0.06 | 90 | 1015.2 |
| 20260905035515 | 77 | 260 | 0.0 | 0.0 | 0.00 | 0.06 | 0.06 | 90 | 1015.2 |
| 20260905035004 | 77 | 260 | 0.0 | 0.0 | 0.00 | 0.06 | 0.06 | 90 | 1015.2 |
| 20260905034520 | 77 | 260 | 0.0 | 0.0 | 0.00 | 0.06 | 0.06 | 90 | 1015.1 |
| 20260905034012 | 77 | 260 | 0.0 | 0.0 | 0.00 | 0.06 | 0.06 | 89 | 1015.3 |
| 20260905033516 | 77 | 260 | 0.0 | 0.0 | 0.00 | 0.06 | 0.06 | 90 | 1015.5 |
| 20260905033013 | 77 | 260 | 0.0 | 0.0 | 0.00 | 0.06 | 0.06 | 89 | 1015.5 |
| 20260905032510 | 77 | 260 | 0.0 | 0.0 | 0.00 | 0.06 | 0.06 | 88 | 1015.5 |
| 20260905032015 | 77 | 260 | 0.0 | 0.0 | 0.00 | 0.06 | 0.06 | 88 | 1015.5 |
| 20260905031510 | 77 | 260 | 0.0 | 0.0 | 0.00 | 0.06 | 0.06 | 88 | 1015.4 |
| 20260905031010 | 77 | 260 | 0.0 | 0.0 | 0.00 | 0.06 | 0.06 | 89 | 1015.6 |
| 20260905030512 | 78 | 260 | 0.0 | 0.0 | 0.00 | 0.06 | 0.06 | 89 | 1015.5 |
| 20260905030031 | 78 | 260 | 0.0 | 0.0 | 0.00 | 0.06 | 0.06 | 88 | 1015.6 |
| 20260905025505 | 78 | 260 | 0.0 | 0.0 | 0.00 | 0.06 | 0.06 | 88 | 1015.6 |
| 20260905025011 | 78 | 260 | 0.0 | 0.0 | 0.00 | 0.06 | 0.06 | 87 | 1015.6 |
| 20260905024531 | 78 | 261 | 0.0 | 0.0 | 0.00 | 0.06 | 0.06 | 87 | 1015.5 |
| 20260905024015 | 78 | 260 | 0.0 | 0.0 | 0.00 | 0.06 | 0.06 | 87 | 1015.7 |
| 20260905023027 | 78 | 260 | 0.0 | 0.0 | 0.00 | 0.06 | 0.06 | 87 | 1015.7 |
| 20260905022508 | 78 | 260 | 0.0 | 0.0 | 0.00 | 0.06 | 0.06 | 86 | 1015.6 |
| 20260905022005 | 78 | 260 | 0.0 | 0.0 | 0.00 | 0.06 | 0.06 | 86 | 1015.5 |
| 20260905021531 | 78 | 260 | 0.0 | 0.0 | 0.00 | 0.06 | 0.06 | 85 | 1015.7 |
| 20260905021003 | 79 | 260 | 0.0 | 0.0 | 0.00 | 0.06 | 0.06 | 85 | 1015.4 |
| 20260905020504 | 79 | 260 | 0.0 | 0.0 | 0.00 | 0.06 | 0.06 | 84 | 1015.7 |
| 20260905020021 | 79 | 260 | 0.0 | 0.0 | 0.00 | 0.06 | 0.06 | 84 | 1015.7 |
| 20260905015516 | 79 | 260 | 0.0 | 0.0 | 0.00 | 0.06 | 0.06 | 83 | 1015.6 |
| 20260905015006 | 79 | 260 | 0.0 | 0.0 | 0.00 | 0.06 | 0.06 | 83 | 1015.7 |
| 20260905014514 | 79 | 260 | 0.0 | 0.0 | 0.00 | 0.06 | 0.06 | 83 | 1015.6 |
| 20260905014009 | 79 | 260 | 0.0 | 0.0 | 0.00 | 0.06 | 0.06 | 83 | 1015.6 |
| 20260905013520 | 79 | 260 | 0.0 | 0.0 | 0.00 | 0.06 | 0.06 | 83 | 1015.6 |
| 20260905013008 | 79 | 260 | 0.0 | 0.0 | 0.00 | 0.06 | 0.06 | 83 | 1015.5 |
| 20260905012508 | 79 | 260 | 0.0 | 0.0 | 0.00 | 0.06 | 0.06 | 82 | 1015.7 |
| 20260905012012 | 79 | 260 | 0.0 | 0.0 | 0.00 | 0.06 | 0.06 | 82 | 1015.7 |
| 20260905011504 | 80 | 260 | 0.0 | 0.0 | 0.00 | 0.06 | 0.06 | 81 | 1015.6 |
| 20260905011006 | 80 | 260 | 0.0 | 0.0 | 0.00 | 0.06 | 0.06 | 81 | 1015.5 |
| 20260905010510 | 80 | 260 | 0.0 | 0.0 | 0.00 | 0.06 | 0.06 | 82 | 1015.4 |
| 20260905010026 | 80 | 260 | 0.0 | 0.0 | 0.00 | 0.06 | 0.06 | 81 | 1015.2 |
| 20260905005507 | 80 | 260 | 0.0 | 0.0 | 0.00 | 0.06 | 0.06 | 80 | 1015.5 |
| 20260905005008 | 80 | 260 | 0.0 | 0.0 | 0.00 | 0.06 | 0.06 | 80 | 1015.2 |
| 20260905004525 | 80 | 260 | 0.0 | 0.0 | 0.00 | 0.06 | 0.06 | 79 | 1015.4 |
| 20260905004003 | 80 | 260 | 0.0 | 0.0 | 0.00 | 0.06 | 0.06 | 80 | 1015.2 |
| 20260905003508 | 80 | 260 | 0.0 | 0.0 | 0.00 | 0.06 | 0.06 | 78 | 1015.5 |
| 20260905003026 | 81 | 258 | 0.0 | 0.0 | 0.00 | 0.06 | 0.06 | 78 | 1015.5 |
| 20260905002514 | 81 | 258 | 0.0 | 0.0 | 0.00 | 0.06 | 0.06 | 78 | 1015.3 |
| 20260905002004 | 81 | 258 | 0.0 | 0.0 | 0.00 | 0.06 | 0.06 | 78 | 1015.4 |
| 20260905001516 | 81 | 258 | 0.0 | 1.0 | 0.00 | 0.06 | 0.06 | 77 | 1015.2 |
| 20260905001012 | 81 | 258 | 0.0 | 1.0 | 0.00 | 0.06 | 0.06 | 76 | 1015.4 |
| 20260905000504 | 82 | 258 | 0.0 | 0.0 | 0.00 | 0.06 | 0.06 | 76 | 1015.4 |
| 20260905000011 | 82 | 258 | 0.0 | 1.0 | 0.00 | 0.06 | 0.06 | 76 | 1015.3 |
| 20260904235013 | 82 | 257 | 0.0 | 2.0 | 0.00 | 0.06 | 0.06 | 77 | 1015.5 |
| 20260904234510 | 83 | 259 | 0.0 | 2.0 | 0.00 | 0.06 | 0.06 | 74 | 1015.6 |
| 20260904234011 | 83 | 269 | 1.0 | 2.0 | 0.00 | 0.06 | 0.06 | 73 | 1015.5 |
| 20260904233511 | 83 | 276 | 0.0 | 2.0 | 0.00 | 0.06 | 0.06 | 74 | 1015.4 |
| 20260904233031 | 83 | 277 | 0.0 | 2.0 | 0.00 | 0.06 | 0.06 | 73 | 1015.2 |
| 20260904232505 | 83 | 281 | 0.0 | 3.0 | 0.00 | 0.06 | 0.06 | 73 | 1015.4 |
| 20260904232012 | 83 | 285 | 0.0 | 3.0 | 0.00 | 0.06 | 0.06 | 73 | 1015.4 |
| 20260904231528 | 83 | 261 | 1.0 | 4.0 | 0.00 | 0.06 | 0.06 | 72 | 1015.3 |
| 20260904231006 | 84 | 278 | 1.0 | 4.0 | 0.00 | 0.06 | 0.06 | 72 | 1015.1 |
| 20260904230508 | 84 | 283 | 1.0 | 4.0 | 0.00 | 0.06 | 0.06 | 71 | 1015.4 |
| 20260904230024 | 84 | 288 | 1.0 | 6.0 | 0.00 | 0.06 | 0.06 | 71 | 1015.4 |
| 20260904225514 | 84 | 301 | 2.0 | 6.0 | 0.00 | 0.06 | 0.06 | 71 | 1015.3 |
| 20260904225004 | 85 | 281 | 1.0 | 3.0 | 0.00 | 0.06 | 0.06 | 71 | 1015.1 |
| 20260904224522 | 85 | 282 | 0.0 | 7.0 | 0.00 | 0.06 | 0.06 | 70 | 1014.9 |
| 20260904224014 | 86 | 285 | 1.0 | 7.0 | 0.00 | 0.06 | 0.06 | 71 | 1015.0 |
| 20260904223504 | 86 | 280 | 2.0 | 9.0 | 0.00 | 0.06 | 0.06 | 70 | 1014.9 |
| 20260904223019 | 86 | 307 | 2.0 | 9.0 | 0.00 | 0.06 | 0.06 | 71 | 1015.1 |
| 20260904222510 | 86 | 302 | 1.0 | 9.0 | 0.00 | 0.06 | 0.06 | 78 | 1015.0 |
| 20260904222017 | 86 | 264 | 0.0 | 1.0 | 0.01 | 0.06 | 0.06 | 77 | 1015.0 |
| 20260904221513 | 86 | 264 | 0.0 | 1.0 | 0.01 | 0.06 | 0.06 | 75 | 1015.0 |
| 20260904221010 | 85 | 266 | 0.0 | 1.0 | 0.02 | 0.06 | 0.06 | 78 | 1015.0 |
| 20260904220512 | 85 | 277 | 0.0 | 1.0 | 0.04 | 0.06 | 0.06 | 78 | 1014.9 |
| 20260904220034 | 84 | 276 | 0.0 | 1.0 | 0.05 | 0.06 | 0.06 | 77 | 1015.0 |
| 20260904215503 | 84 | 276 | 0.0 | 0.0 | 0.06 | 0.06 | 0.06 | 78 | 1015.0 |
| 20260904215010 | 84 | 276 | 0.0 | 0.0 | 0.06 | 0.06 | 0.06 | 83 | 1014.9 |
| 20260904214530 | 84 | 276 | 0.0 | 0.0 | 0.06 | 0.06 | 0.06 | 85 | 1014.8 |
| 20260904214008 | 83 | 332 | 0.0 | 1.0 | 0.06 | 0.06 | 0.06 | 87 | 1014.9 |
| 20260904213508 | 82 | 285 | 0.0 | 1.0 | 0.06 | 0.06 | 0.06 | 88 | 1014.9 |
| 20260904213038 | 82 | 238 | 0.0 | 0.0 | 0.06 | 0.06 | 0.06 | 87 | 1014.7 |
| 20260904212516 | 82 | 238 | 0.0 | 0.0 | 0.06 | 0.06 | 0.06 | 85 | 1014.7 |
| 20260904212008 | 83 | 113 | 0.0 | 0.0 | 0.05 | 0.05 | 0.05 | 79 | 1014.7 |
| 20260904211527 | 83 | 113 | 0.0 | 2.0 | 0.05 | 0.05 | 0.05 | 77 | 1014.9 |
| 20260904211013 | 84 | 153 | 0.0 | 6.0 | 0.04 | 0.04 | 0.04 | 75 | 1014.7 |
| 20260904210507 | 86 | 230 | 0.0 | 9.0 | 0.02 | 0.02 | 0.02 | 75 | 1015.0 |
| 20260904210021 | 88 | 127 | 2.0 | 9.0 | 0.01 | 0.01 | 0.01 | 73 | 1015.0 |
| 20260904205514 | 91 | 123 | 4.0 | 8.0 | 0.00 | 0.00 | 0.00 | 67 | 1015.1 |
| 20260904205017 | 92 | 91 | 0.0 | 5.0 | 0.00 | 0.00 | 0.00 | 62 | 1014.7 |
| 20260904204519 | 91 | 239 | 0.0 | 1.0 | 0.00 | 0.00 | 0.00 | 65 | 1014.6 |
| 20260904204011 | 90 | 239 | 0.0 | 0.0 | 0.00 | 0.00 | 0.00 | 67 | 1014.6 |
| 20260904203512 | 90 | 239 | 0.0 | 0.0 | 0.00 | 0.00 | 0.00 | 67 | 1014.6 |
| 20260904203036 | 90 | 239 | 0.0 | 1.0 | 0.00 | 0.00 | 0.00 | 68 | 1015.0 |
| 20260904202510 | 90 | 239 | 0.0 | 1.0 | 0.00 | 0.00 | 0.00 | 67 | 1014.9 |
| 20260904202011 | 90 | 239 | 0.0 | 1.0 | 0.00 | 0.00 | 0.00 | 68 | 1015.1 |
| 20260904201533 | 90 | 253 | 0.0 | 0.0 | 0.00 | 0.00 | 0.00 | 65 | 1015.0 |
| 20260904201005 | 90 | 253 | 0.0 | 0.0 | 0.00 | 0.00 | 0.00 | 63 | 1015.3 |
| 20260904200510 | 90 | 253 | 0.0 | 0.0 | 0.00 | 0.00 | 0.00 | 64 | 1015.3 |
| 20260904200028 | 91 | 253 | 0.0 | 0.0 | 0.00 | 0.00 | 0.00 | 64 | 1015.4 |
| 20260904195521 | 91 | 253 | 0.0 | 0.0 | 0.00 | 0.00 | 0.00 | 63 | 1015.4 |
| 20260904195010 | 92 | 253 | 0.0 | 0.0 | 0.00 | 0.00 | 0.00 | 63 | 1015.6 |
| 20260904194531 | 92 | 253 | 0.0 | 0.0 | 0.00 | 0.00 | 0.00 | 62 | 1015.7 |
| 20260904194015 | 92 | 253 | 0.0 | 0.0 | 0.00 | 0.00 | 0.00 | 61 | 1015.7 |
| 20260904193507 | 92 | 253 | 0.0 | 0.0 | 0.00 | 0.00 | 0.00 | 60 | 1015.7 |
| 20260904193023 | 92 | 253 | 0.0 | 1.0 | 0.00 | 0.00 | 0.00 | 60 | 1015.7 |
| 20260904192513 | 92 | 253 | 0.0 | 1.0 | 0.00 | 0.00 | 0.00 | 60 | 1015.8 |
| 20260904192016 | 92 | 254 | 0.0 | 1.0 | 0.00 | 0.00 | 0.00 | 60 | 1015.8 |
| 20260904191518 | 93 | 254 | 0.0 | 1.0 | 0.00 | 0.00 | 0.00 | 59 | 1015.9 |
| 20260904191012 | 94 | 254 | 0.0 | 1.0 | 0.00 | 0.00 | 0.00 | 58 | 1015.9 |
| 20260904190514 | 94 | 139 | 0.0 | 2.0 | 0.00 | 0.00 | 0.00 | 55 | 1016.2 |
| 20260904190014 | 94 | 303 | 0.0 | 2.0 | 0.00 | 0.00 | 0.00 | 54 | 1016.3 |
| 20260904185507 | 93 | 278 | 0.0 | 1.0 | 0.00 | 0.00 | 0.00 | 56 | 1016.1 |
| 20260904185015 | 93 | 278 | 0.0 | 1.0 | 0.00 | 0.00 | 0.00 | 60 | 1016.2 |
| 20260904184533 | 94 | 278 | 0.0 | 1.0 | 0.00 | 0.00 | 0.00 | 58 | 1016.4 |
| 20260904184005 | 95 | 278 | 0.0 | 4.0 | 0.00 | 0.00 | 0.00 | 57 | 1016.6 |
| 20260904183512 | 96 | 276 | 1.0 | 4.0 | 0.00 | 0.00 | 0.00 | 55 | 1016.6 |
| 20260904183032 | 96 | 283 | 1.0 | 4.0 | 0.00 | 0.00 | 0.00 | 54 | 1016.5 |
| 20260904182520 | 97 | 292 | 0.0 | 2.0 | 0.00 | 0.00 | 0.00 | 55 | 1016.5 |
| 20260904182011 | 97 | 290 | 0.0 | 2.0 | 0.00 | 0.00 | 0.00 | 56 | 1016.8 |
| 20260904181536 | 96 | 297 | 0.0 | 2.0 | 0.00 | 0.00 | 0.00 | 57 | 1017.0 |
| 20260904181018 | 96 | 298 | 0.0 | 2.0 | 0.00 | 0.00 | 0.00 | 54 | 1016.8 |
| 20260904180511 | 96 | 256 | 0.0 | 1.0 | 0.00 | 0.00 | 0.00 | 55 | 1016.7 |
| 20260904180043 | 97 | 256 | 0.0 | 1.0 | 0.00 | 0.00 | 0.00 | 53 | 1016.9 |
| 20260904175513 | 98 | 216 | 0.0 | 1.0 | 0.00 | 0.00 | 0.00 | 53 | 1017.2 |
| 20260904175015 | 97 | 81 | 0.0 | 1.0 | 0.00 | 0.00 | 0.00 | 54 | 1017.3 |
| 20260904174523 | 96 | 1 | 0.0 | 1.0 | 0.00 | 0.00 | 0.00 | 55 | 1017.1 |
| 20260904174009 | 96 | 207 | 0.0 | 4.0 | 0.00 | 0.00 | 0.00 | 55 | 1017.1 |
| 20260904173516 | 96 | 105 | 1.0 | 4.0 | 0.00 | 0.00 | 0.00 | 55 | 1017.4 |
| 20260904173040 | 97 | 169 | 0.0 | 3.0 | 0.00 | 0.00 | 0.00 | 56 | 1017.5 |
| 20260904172508 | 96 | 243 | 0.0 | 1.0 | 0.00 | 0.00 | 0.00 | 57 | 1017.6 |
| 20260904172012 | 95 | 194 | 0.0 | 1.0 | 0.00 | 0.00 | 0.00 | 57 | 1017.5 |
| 20260904171605 | 95 | 262 | 0.0 | 0.0 | 0.00 | 0.00 | 0.00 | 58 | 1017.5 |
| 20260904171010 | 95 | 127 | 0.0 | 0.0 | 0.00 | 0.00 | 0.00 | 56 | 1017.6 |
| 20260904170510 | 95 | 167 | 0.0 | 0.0 | 0.00 | 0.00 | 0.00 | 59 | 1017.8 |
| 20260904170010 | 94 | 264 | 0.0 | 1.0 | 0.00 | 0.00 | 0.00 | 59 | 1017.9 |
| 20260904165507 | 93 | 266 | 0.0 | 1.0 | 0.00 | 0.00 | 0.00 | 58 | 1017.9 |
| 20260904165005 | 94 | 226 | 0.0 | 2.0 | 0.00 | 0.00 | 0.00 | 58 | 1017.8 |
| 20260904164515 | 93 | 108 | 1.0 | 2.0 | 0.00 | 0.00 | 0.00 | 58 | 1018.0 |
| 20260904164008 | 93 | 206 | 0.0 | 0.0 | 0.00 | 0.00 | 0.00 | 61 | 1018.1 |
| 20260904163506 | 92 | 230 | 0.0 | 1.0 | 0.00 | 0.00 | 0.00 | 61 | 1018.2 |
| 20260904163016 | 92 | 130 | 0.0 | 2.0 | 0.00 | 0.00 | 0.00 | 61 | 1018.3 |
| 20260904162507 | 92 | 305 | 1.0 | 2.0 | 0.00 | 0.00 | 0.00 | 61 | 1018.1 |
| 20260904162004 | 91 | 344 | 0.0 | 3.0 | 0.00 | 0.00 | 0.00 | 62 | 1018.1 |
| 20260904161516 | 91 | 271 | 2.0 | 3.0 | 0.00 | 0.00 | 0.00 | 62 | 1018.2 |
| 20260904161005 | 91 | 277 | 0.0 | 2.0 | 0.00 | 0.00 | 0.00 | 65 | 1018.2 |
| 20260904160506 | 90 | 170 | 0.0 | 1.0 | 0.00 | 0.00 | 0.00 | 65 | 1018.3 |
| 20260904160016 | 90 | 288 | 0.0 | 1.0 | 0.00 | 0.00 | 0.00 | 64 | 1018.3 |
| 20260904155509 | 90 | 302 | 0.0 | 2.0 | 0.00 | 0.00 | 0.00 | 66 | 1018.2 |
| 20260904155010 | 90 | 125 | 0.0 | 2.0 | 0.00 | 0.00 | 0.00 | 66 | 1018.3 |